Theta_e
308 308 308 307 306 304 306 311 304 315 316 306 310 303 305 297 303 306 304 304 303 302 302 301 301 300 303 304 303 300 306 304 298 299 304 307 304 299 297 290 294 294 297 295
308 307 307 307 306 305 304 306 307 318 314 301 304 306 303 302 302 303 302 302 304 306 302 299 301 302 304 303 303 302 305 299 293 296 300 302 299 300 300 296 292 291 288 296
307 307 307 307 306 305 306 306 301 310 311 308 302 301 300 300 304 302 304 303 304 303 300 303 300 301 303 302 303 301 302 299 296 291 295 297 294 295 297 297 291 290 289 294
307 306 306 306 305 305 307 307 304 303 298 301 302 302 300 298 299 303 304 301 301 300 298 300 300 301 302 302 301 300 301 296 298 297 297 297 295 295 295 292 293 289 293 293
306 306 306 306 305 304 307 301 300 303 300 302 300 299 299 298 300 299 300 300 301 302 299 301 299 302 301 300 302 301 304 295 297 294 297 297 294 295 295 295 294 293 293 292
306 305 305 305 306 305 304 306 306 302 298 300 299 299 299 298 300 301 302 301 300 300 301 304 306 306 306 305 302 301 300 298 295 290 295 294 290 295 296 296 297 295 292 297
305 305 304 305 305 304 305 305 303 298 295 298 298 298 298 297 298 297 300 303 300 303 308 307 305 304 303 303 303 304 299 298 297 292 294 284 295 300 299 297 298 299 297 299
305 304 304 305 304 305 304 306 302 299 294 297 296 297 297 298 300 298 297 299 302 306 304 298 296 296 297 299 301 301 302 298 295 290 289 292 295 297 297 296 296 301 300 301
305 304 304 304 304 304 305 306 306 300 295 295 298 296 297 295 296 297 299 303 306 303 299 295 290 288 293 292 295 302 301 301 295 292 285 283 295 301 302 300 292 301 302 300
304 304 304 304 303 303 304 302 308 300 293 298 299 295 295 298 297 295 298 299 300 303 295 291 290 290 296 291 291 292 294 295 291 290 289 292 299 301 302 288 293 301 301 301
304 304 304 303 303 304 303 300 305 299 293 296 298 299 295 296 295 291 297 296 298 296 292 291 291 292 294 294 297 294 293 290 290 292 289 286 302 300 293 301 304 302 302 301
304 304 304 303 303 303 302 297 305 304 296 296 301 301 302 301 300 296 297 295 295 297 295 295 296 294 295 295 289 299 292 297 294 295 295 301 302 302 304 303 301 301 302 302
305 304 304 303 303 303 302 301 304 301 296 296 297 296 302 305 304 305 293 296 298 299 301 296 296 293 297 291 293 295 298 300 296 295 299 300 301 302 302 302 303 302 303 304
305 304 304 304 304 303 302 300 306 302 296 290 293 303 300 304 304 302 302 300 302 302 300 294 294 293 299 294 296 295 298 297 295 294 298 299 301 301 304 302 303 302 303 302
304 304 304 304 303 303 303 302 304 302 294 289 291 298 301 302 303 300 300 299 296 295 295 295 293 296 296 296 296 294 298 295 292 292 298 300 301 302 302 302 302 302 301 301
304 304 303 303 303 302 299 296 303 303 300 291 287 298 298 300 300 300 300 299 297 294 295 296 298 301 297 291 290 296 299 300 300 297 302 300 301 303 303 302 301 302 301 300
302 302 302 302 302 302 296 294 297 301 302 290 288 291 297 300 300 301 299 300 298 296 296 296 297 297 295 292 290 295 298 299 300 302 302 299 302 299 302 302 302 302 301 302
302 301 301 302 301 301 298 301 303 303 295 294 287 288 292 299 294 292 299 297 297 298 297 298 296 298 296 291 296 298 299 300 300 301 303 302 303 302 301 303 302 300 301 302
301 301 302 301 298 296 298 300 302 304 297 289 290 285 285 296 291 287 297 298 291 299 294 294 297 295 291 294 296 297 299 299 300 300 302 301 299 299 299 300 300 300 301 302
301 300 297 292 300 300 301 294 294 294 294 294 288 292 288 293 291 289 296 296 290 288 293 299 294 293 297 300 301 300 300 301 301 299 298 299 298 299 300 302 303 302 302 302
299 296 297 301 301 298 296 291 289 291 287 291 291 292 289 297 288 291 295 292 293 287 292 292 290 292 297 301 300 302 302 302 302 303 302 302 302 301 302 302 302 303 303 302
298 297 300 300 295 292 287 288 291 288 285 290 290 290 292 294 298 293 295 289 292 285 297 292 287 293 299 301 301 302 303 303 302 302 302 302 302 303 303 303 303 303 304 303
302 296 291 292 291 283 283 281 286 287 291 290 291 288 291 294 296 292 292 287 288 298 289 287 293 297 299 301 301 301 303 302 302 302 302 303 304 305 305 304 305 305 303 302
293 289 284 286 285 287 287 287 288 291 293 292 291 289 290 294 291 293 287 293 291 286 286 287 295 299 299 300 302 302 301 301 301 301 302 303 303 303 305 306 306 305 303 302
290 290 283 287 292 293 292 293 291 293 293 290 289 289 292 291 289 292 291 288 284 287 287 294 299 301 301 302 302 301 301 302 302 303 303 303 303 304 305 305 306 306 305 303
292 290 287 291 290 290 291 290 291 295 293 293 293 289 289 288 290 288 286 285 284 288 296 300 302 303 303 303 302 303 303 304 304 304 304 304 304 305 306 306 306 306 305 302
289 290 296 291 291 290 292 293 293 296 293 290 293 287 287 293 288 287 287 286 292 297 300 303 304 304 304 305 304 304 304 304 305 305 305 305 307 307 305 305 306 306 306 304
Wind_Speed
19 20 23 26 28 33 14 7 7 8 10 9 3 7 6 2 9 6 9 7 14 13 12 10 13 11 4 3 5 10 6 7 10 14 7 9 5 6 5 5 9 10 8 2
17 19 22 24 26 22 10 9 8 2 8 6 5 4 9 6 10 10 6 9 10 11 10 9 13 8 8 2 5 6 2 8 11 14 8 6 9 6 9 5 2 11 10 4
16 18 20 22 25 22 10 7 6 3 2 1 8 10 12 13 7 10 13 13 11 11 13 11 8 9 8 5 2 5 2 9 12 12 14 4 6 6 6 12 7 10 11 22
16 17 18 21 24 25 8 4 5 5 7 8 10 12 13 16 15 9 6 10 15 15 15 15 14 13 9 8 8 6 6 12 14 14 14 14 16 13 14 16 17 17 18 14
14 16 17 18 23 30 7 6 6 7 12 15 12 10 11 15 13 5 14 17 17 14 16 15 14 14 12 12 16 10 10 10 10 13 15 18 19 15 19 20 19 20 18 19
12 13 15 17 19 21 5 6 4 6 8 13 9 10 12 7 8 11 16 13 9 12 11 13 8 9 10 7 8 9 11 10 11 12 12 11 14 17 19 18 17 15 16 12
11 11 12 13 14 14 9 5 8 8 11 12 10 12 10 14 14 15 17 11 10 8 9 10 9 12 14 14 14 11 13 12 10 10 10 11 9 2 4 8 11 10 6 5
8 10 11 11 12 13 10 6 7 8 11 13 15 15 10 13 14 15 16 18 15 8 11 11 15 14 17 19 19 17 14 13 9 4 10 14 19 3 5 3 4 8 10 4
8 8 10 8 10 12 10 7 5 8 9 9 9 12 13 12 13 14 16 11 10 6 10 13 20 15 17 10 9 12 10 12 13 7 4 6 2 6 2 1 6 4 7 6
9 9 8 9 10 9 9 5 5 7 9 15 10 8 9 11 12 10 12 8 10 12 12 14 16 17 19 17 13 7 13 13 15 12 9 8 3 7 3 7 4 3 5 7
10 9 9 8 6 6 7 6 5 6 6 16 21 18 15 13 12 12 9 8 11 9 13 14 13 12 12 16 16 16 9 9 12 16 14 13 5 6 6 7 2 5 8 9
11 11 9 8 8 8 8 10 4 3 6 15 20 20 20 20 17 9 7 10 10 4 6 7 5 7 7 11 10 10 11 10 3 5 3 4 4 5 5 5 6 8 8 11
11 12 11 10 10 9 8 8 7 5 7 13 15 12 11 12 13 12 14 10 6 7 2 3 5 7 4 7 10 6 6 4 5 3 9 7 4 0 4 3 7 8 7 10
11 11 11 12 10 7 7 5 5 4 4 7 8 6 4 5 8 9 11 17 8 10 9 3 5 4 7 3 3 8 2 5 8 4 9 9 10 5 7 4 4 4 7 9
10 10 10 11 9 8 10 9 6 4 3 6 12 19 13 9 7 14 14 10 9 9 7 8 9 3 5 7 6 7 8 2 5 3 6 2 8 3 0 4 5 5 6 6
7 9 10 8 7 9 6 3 5 6 4 4 7 6 9 9 7 6 10 8 8 7 3 5 5 6 7 4 6 8 9 6 4 3 5 4 1 3 2 2 3 5 6 4
6 7 7 6 5 7 3 4 2 6 3 3 6 3 5 5 6 4 5 8 5 6 5 5 5 4 4 4 7 6 7 3 5 6 1 0 3 1 3 1 1 3 4 4
5 4 4 6 8 10 8 3 5 6 3 5 5 6 3 5 3 3 4 4 5 5 4 4 5 5 6 4 8 11 5 6 8 6 2 3 1 2 3 3 2 4 6 6
5 8 11 9 5 3 2 4 6 5 5 5 4 6 4 4 2 3 4 4 4 4 5 5 4 3 4 4 5 8 9 4 4 6 6 5 2 5 5 4 3 6 7 7
7 8 3 3 1 2 1 2 3 5 4 4 6 5 6 4 4 3 2 3 2 5 7 4 4 4 3 6 7 8 8 9 7 5 8 7 5 6 4 6 7 7 7 7
3 2 2 3 5 4 4 5 6 3 3 3 3 7 8 2 4 2 3 2 3 3 4 4 3 2 5 6 7 5 4 7 4 9 9 7 6 5 7 7 7 7 7 7
4 6 6 3 4 5 5 3 2 4 1 3 2 3 4 5 4 3 1 1 3 0 0 2 1 1 4 9 9 9 8 9 9 9 10 8 7 8 9 9 8 8 7 7
5 5 4 3 3 3 4 3 3 4 5 2 2 3 3 5 4 4 2 3 3 2 2 1 3 7 11 10 10 11 10 11 10 10 8 10 11 11 10 9 9 8 7 6
4 3 4 3 1 5 5 6 6 7 7 7 5 3 3 3 3 1 3 2 2 3 3 5 7 7 11 10 10 10 11 10 10 9 9 9 9 8 8 7 7 8 8 7
4 4 3 4 6 3 4 6 6 3 3 3 2 3 3 2 4 3 4 2 3 4 6 7 6 6 9 10 11 11 10 9 8 8 8 8 6 6 6 6 6 7 7 8
4 4 5 4 2 6 5 6 6 5 2 2 3 3 3 2 3 4 5 5 5 4 7 7 7 6 10 8 8 7 8 9 7 7 6 5 3 4 3 4 5 5 7 8
4 2 2 6 5 7 6 5 7 7 4 1 3 1 4 3 3 4 4 3 4 4 9 8 6 7 6 7 9 6 6 6 6 6 5 4 1 2 2 4 4 4 7 7
Wind_Direction
350 347 346 347 348 343 330 302 308 45 336 280 213 290 23 20 270 208 259 262 273 277 279 272 265 264 275 85 297 277 25 298 280 278 309 212 236 235 248 290 342 317 267 313
349 349 348 345 345 3 320 308 296 86 320 291 290 74 289 253 274 256 252 249 251 278 267 263 254 264 84 271 262 341 173 254 265 263 177 176 247 243 228 212 280 262 278 330
351 349 347 345 339 344 318 294 309 358 329 98 333 339 286 272 219 280 269 268 277 259 251 247 263 229 159 230 252 28 313 264 266 278 306 202 228 218 229 201 223 252 237 288
349 349 347 344 338 334 304 293 19 28 309 324 332 294 294 286 278 216 252 264 245 250 248 250 236 248 200 188 145 222 247 259 266 268 283 294 294 273 239 220 235 262 277 258
345 347 346 346 341 332 248 324 344 349 289 278 284 273 268 286 285 277 270 247 275 262 255 258 270 243 226 230 178 226 202 265 265 275 276 265 262 268 264 260 247 253 260 264
342 345 345 349 349 337 322 17 286 268 294 278 258 279 314 299 320 285 258 292 292 278 276 326 322 337 310 298 262 224 226 252 259 266 293 289 274 264 248 250 244 252 255 269
335 339 341 345 348 347 316 356 301 279 286 295 297 306 293 284 281 280 286 272 264 307 325 292 258 264 254 243 235 246 262 242 262 271 273 272 261 59 314 289 293 298 261 295
331 331 332 332 337 336 302 317 302 295 287 299 298 285 281 289 274 248 256 265 269 309 291 270 251 241 236 237 235 228 224 255 264 213 241 261 280 173 264 322 31 335 71 102
309 316 321 330 330 331 297 321 329 278 293 261 355 302 297 298 291 284 266 243 261 287 263 246 245 245 239 236 220 219 235 217 250 203 228 244 304 91 39 240 252 58 10 12
302 299 311 317 322 315 302 318 330 280 299 275 303 295 322 318 321 294 299 293 251 231 245 241 241 244 246 243 211 193 207 214 224 231 223 251 106 133 288 253 68 30 355 333
303 295 292 301 329 337 297 299 268 294 284 284 280 284 286 280 277 281 328 300 221 244 239 250 251 253 247 249 253 186 226 214 219 230 234 243 171 153 248 61 13 329 328 321
301 295 281 286 294 302 298 282 321 268 259 290 303 284 278 271 268 281 267 285 296 330 288 246 271 229 249 227 236 239 212 216 256 241 65 109 137 74 43 4 317 304 331 343
282 284 284 279 279 288 285 294 275 284 279 274 257 253 232 235 239 251 253 252 300 264 345 286 309 274 288 234 240 211 247 184 226 159 176 175 151 167 260 286 13 356 314 315
274 280 282 282 271 275 261 255 263 269 288 284 296 15 277 251 242 238 231 257 235 289 273 276 258 285 338 352 282 244 42 284 245 221 230 185 218 81 41 338 285 296 339 332
271 286 283 286 273 240 266 269 268 266 256 305 303 305 303 250 249 221 235 248 251 247 263 247 242 259 262 241 254 239 184 245 244 305 351 338 92 70 350 300 343 352 338 337
276 286 291 290 232 245 279 261 51 24 16 307 283 331 228 237 220 262 236 205 230 235 269 251 254 195 246 264 261 257 285 182 297 300 123 42 132 206 113 347 344 13 315 353
276 284 287 269 242 256 250 302 98 206 157 240 264 278 355 14 319 281 201 155 220 235 240 247 256 210 221 248 241 320 126 129 184 104 122 275 24 253 348 62 2 202 300 303
280 278 274 270 273 274 257 321 192 199 254 254 265 286 179 358 1 292 182 173 196 218 257 265 246 172 217 219 247 181 128 168 153 165 159 203 296 233 95 109 310 314 294 327
271 272 279 272 232 226 79 9 286 216 243 299 253 287 339 117 189 267 216 186 208 207 229 227 253 198 213 238 206 146 161 123 112 184 201 133 121 64 51 21 326 316 334 343
283 275 226 231 65 144 142 2 210 199 218 239 272 314 289 304 22 305 175 181 268 193 210 176 223 230 184 165 122 114 152 156 190 190 161 127 104 57 15 16 7 353 356 350
232 272 285 337 139 234 222 219 210 177 219 224 322 313 309 143 274 24 158 203 274 249 180 187 206 214 151 183 172 178 172 163 165 94 81 80 62 36 29 26 23 25 26 27
331 304 273 275 247 237 260 253 233 232 47 165 268 315 309 296 300 290 31 293 253 137 131 154 155 132 138 134 149 130 123 136 110 112 101 93 74 60 57 48 40 41 41 25
251 220 238 208 221 297 258 29 358 9 8 91 274 315 288 270 241 262 209 299 40 152 78 259 108 161 175 120 119 119 115 104 113 108 113 106 94 75 60 57 51 46 35 29
281 299 287 265 302 18 12 356 353 334 328 334 338 274 244 287 275 322 272 262 120 209 197 85 130 134 110 122 118 130 107 112 126 128 125 120 93 87 76 62 49 43 31 29
288 297 308 346 35 61 28 7 306 313 308 305 255 243 248 280 276 255 265 244 32 1 92 116 119 122 117 107 99 111 128 136 132 130 136 122 134 110 85 58 52 37 32 23
267 283 325 10 318 19 23 318 358 323 314 269 238 296 269 250 294 331 39 332 5 93 97 99 113 103 108 117 114 119 124 120 123 122 134 131 128 81 105 101 36 31 18 14
263 286 312 330 346 341 353 345 5 352 340 6 203 244 28 354 301 48 2 26 92 105 93 92 98 114 121 127 126 131 130 123 126 140 156 122 152 253 272 36 45 24 8 14